Regional Weather Roundup
Issued by NWS

Home | Current Version | Previous Version | Text Only | Print | Product List | Glossary Off
Versions: 1 2 3 4 5 6 7 8 9 10 11 12 13 14 15 16 17 18 19 20 21 22 23 24 25 26 27 28 29 30 31 32 33 34 35 36 37 38 39 40 41 42 43 44 45 46 47 48 49 50

000
ASUS43 KMKX 081700
RWRWI

WISCONSIN REGIONAL WEATHER ROUNDUP
NATIONAL WEATHER SERVICE MILWAUKEE/SULLIVAN WI
1100 AM CST MON FEB 08 2016

NOTE: "FAIR" INDICATES FEW OR NO CLOUDS BELOW 12,000 FEET WITH NO
SIGNIFICANT WEATHER AND/OR OBSTRUCTIONS TO VISIBILITY.

WIZ001-002-006>008-014>016-023>028-081800-
NORTHWEST WISCONSIN

CITY           SKY/WX    TMP DP  RH WIND       PRES   REMARKS
SUPERIOR ARPT  CLOUDY    13   4  66 NW16G28   29.91R WCI  -4
ASHLAND        LGT SNOW  18  12  77 NW10      29.83S WCI   6
HAYWARD        LGT SNOW  13   5  70 VRB6      29.83R WCI   4
SIREN          CLOUDY    12   2  66 N17       29.90R WCI  -5
CUMBERLAND     FLURRIES  10   3  72 NW18      29.84R WCI  -8
RICE LAKE      FLURRIES  14   5  69 NW12      29.86R WCI   0
CHETEK         LGT SNOW  13   6  74 NW9       29.84R WCI   1
LADYSMITH      LGT SNOW  16  10  78 NW10G20   29.80R WCI   3
EAU CLAIRE     NOT AVBL
MENOMONIE      FLURRIES  16   6  64 NW15      29.86R WCI   1
NEW RICHMOND   LGT SNOW  12   3  68 N18G24    29.90R WCI  -6
OSCEOLA        CLOUDY    12   3  67 NW18G24   29.95R WCI  -5
$$

WIZ003>005-009-010-017-018-081800-
NORTH CENTRAL WISCONSIN

CITY           SKY/WX    TMP DP  RH WIND       PRES   REMARKS
MANITOWISH WTR LGT SNOW  19  13  79 NW12G18   29.70R WCI   6
ARBOR VITAE    LGT SNOW  22  17  83 NW12G17   29.69R WCI  10
WOODRUFF       LGT SNOW  22  17  83 NW12G17   29.69R WCI  10
RHINELANDER    CLOUDY    21  15  78 N8        29.68R WCI  11
EAGLE RIVER    FLURRIES  20  12  71 N14       29.67R WCI   7
LAND O LAKES   LGT SNOW  19  13  79 N8        29.69R WCI   8
PHILLIPS       CLOUDY    17  13  85 NW12      29.73R WCI   4
TOMAHAWK       CLOUDY    20  17  86 NW14G20   29.70R WCI   7
MEDFORD        CLOUDY    18  14  84 NW17      29.70R FOG     WCI   3
MERRILL        CLOUDY    23  17  79 N10G20    29.69R WCI  12
$$

WIZ029-030-035-036-043>047-081800-
CENTRAL WISCONSIN

CITY           SKY/WX    TMP DP  RH WIND       PRES   REMARKS
WAUSAU         CLOUDY    26  17  68 NW15G22   29.66R WCI  14
MOSINEE        CLOUDY    25  19  80 NW17      29.68R WCI  11
MARSHFIELD     CLOUDY    19  11  70 NW18      29.70R WCI   4
STEVENS POINT  CLOUDY    25  19  75 NW13      29.67R WCI  14
WAUPACA        FLURRIES  28  20  72 W7        29.67R WCI  21
WAUTOMA        NOT AVBL
WISC RAPIDS    CLOUDY    22  13  68 NW12      29.72R WCI  10
CAMP DOUGLAS   CLOUDY    19  16  86 NW18      29.73S WCI   4
$$

WIZ011>013-019>022-031-037>040-048>050-081800-
NORTHEAST WISCONSIN

CITY           SKY/WX    TMP DP  RH WIND       PRES   REMARKS
ANTIGO         CLOUDY    23  18  81 N14       29.64R WCI  11
SHAWANO        CLOUDY    33  26  74 W5        29.64S WCI  28
OCONTO         CLOUDY    33  33 100 N8        29.62R WCI  26
STURGEON BAY   CLOUDY    34  28  80 N8        29.64R WCI  27
GREEN BAY      FLURRIES  31  25  78 NW12      29.63S WCI  22
MANITOWOC      NOT AVBL
APPLETON       CLOUDY    27  19  74 W13       29.63R WCI  16
CLINTONVILLE   CLOUDY    30  23  74 NW8       29.64S WCI  23
OSHKOSH        CLOUDY    25  18  74 W15       29.65R WCI  13
$$

WIZ032>034-041-042-053>061-081800-
SOUTHWEST WISCONSIN

CITY           SKY/WX    TMP DP  RH WIND       PRES   REMARKS
LA CROSSE      CLOUDY    18   9  68 NW21      29.82R WCI   1
SPARTA         CLOUDY    18  12  76 NW13G23   29.80R WCI   5
VIROQUA        CLOUDY    17  12  80 NW17G23   29.75R WCI   1
BOSCOBEL       CLOUDY    21  12  68 N10       29.79R WCI  10
PRAIRIE DU CHI MIX PCPN  20  12  71 NW12      29.80R WCI   8
PLATTEVILLE    CLOUDY    20  15  79 NW17      29.74R WCI   5
$$

WIZ056-057-062-063-064-067-068-081800-
SOUTH CENTRAL WISCONSIN

CITY           SKY/WX    TMP DP  RH WIND       PRES   REMARKS
REEDSBURG      CLOUDY    20  13  76 NW12G17   29.72R WCI   8
BARABOO/DELLS  CLOUDY    21  14  74 NW10G17   29.71R WCI   9
LONE ROCK      CLOUDY    22  13  68 NW10      29.75R WCI  11
MINERAL POINT  CLOUDY    23  18  80 NW12G18   29.71R WCI  12
MADISON        FLURRIES  22  15  75 NW9G21    29.70R WCI  12
MIDDLETON      CLOUDY    23  16  75 NW10G20   29.70S WCI  12
WATERTOWN      CLOUDY    24  19  81 NW10      29.67R WCI  13
MONROE         CLOUDY    23  18  80 NW10G20   29.69R WCI  12
JANESVILLE     CLOUDY    25  19  80 NW15      29.69R WCI  12
$$

WIZ051-052-058>065-066-070>072-081800-
SOUTHEAST WISCONSIN

CITY           SKY/WX    TMP DP  RH WIND       PRES   REMARKS
MILWAUKEE      CLOUDY    30  24  78 NW13      29.65R WCI  20
WAUKESHA       CLOUDY    23  19  86 W14       29.66S WCI  11
MILWAUKEE/TIMM LGT SNOW  27  21  80 NW14      29.66R WCI  15
RACINE         CLOUDY    29  22  75 NW15      29.66R WCI  18
BURLINGTON     CLOUDY    26  21  82 NW12G17   29.66R WCI  15
KENOSHA        CLOUDY    30  24  78 NW10      29.65R WCI  21
FOND DU LAC    CLOUDY    25  18  74 NW12      29.66R WCI  14
SHEBOYGAN      CLOUDY    28  21  75 NW14      29.64R WCI  17
WEST BEND      CLOUDY    27  21  80 NW14G21   29.64R WCI  15
JUNEAU         LGT SNOW  22  18  81 W7        29.68R VSB 1   WCI  14
$$

LSZ147-162-081800-
LAKE SUPERIOR

STATION/POSITION TIME  TEMP    WIND        PRES    WAVE
                       AIR SEA DIR/SP/G            HT/PER
                 (UTC) (F)     (DEG/KT/KT) (MB)    (FT/S)
DEVILS ISLAND    1600   16     350/ 17/ 20 1011.5R
PORT WING        1600   17     320/ 15/ 20 1011.5R
SAXON HARBOR     1600   19                 1009.5
$$

LMZ867-665-643>646-081800-
LAKE MICHIGAN

STATION/POSITION TIME  TEMP    WIND        PRES    WAVE
                       AIR SEA DIR/SP/G            HT/PER
                 (UTC) (F)     (DEG/KT/KT) (MB)    (FT/S)
CHAMBERS ISLAND  1600   33     360/  5/  6 1003.4R
NORTHPORT PIER   1600   33     350/ 10/ 12 1003.0R
ALGOMA LAKESHORE 1511          330/  7/  9   N/A
KEWAUNEE LAKESHO 1600   33     290/  7/ 11 1002.0R
SHEBOYGAN LAKESH 1600   29     300/ 15/ 18 1004.1R
PORT WASHINGTON  1640   28     290/  8/ 14 1004.7R
MILWAUKEE LAKESH 1610   29     290/  9/ 11   N/A
KENOSHA   LAKESH 1600   30     290/ 11/ 15 1004.1R
$$

TC  - TEMPERATURE IN CELSIUS
VSB - VISIBILITY IN STATUTE MILES
WCI - WIND CHILL INDEX
HX  - HEAT INDEX




USA.gov is the U.S. government's official web portal to all federal, state and local government web resources and services.